Location: Newark
(37.8333°N, 119.5000°W)
Time: 08:27:22
(UTC+00:00)

Tiros 1 despin weight - Pass Details

Date: 27 August 2019
Orbit: 594 x 642 km, 48.2° (Epoch: 19 September)

Event Time Altitude Azimuth Distance (km) Brightness Sun altitude
Rises 11:28:05 0° 303° (WNW) 2,869 - -21.7°
Reaches altitude 10° 11:30:22 10° 303° (WNW) 1,970 - -21.4°
Exits shadow 11:32:49 32° 302° (WNW) 1,067 ? -21.0°
Maximum altitude 11:34:55 86° 217° (SW) 625 ? -20.6°
Drops below altitude 10° 11:39:30 10° 127° (SE) 1,993 ? -19.8°
Sets 11:41:50 0° 127° (SE) 2,905 ? -19.4°
